Погода в Талоне

Россия / Магаданская область     59°45′46″N   148°39′19″E
В апреле 2022 года жителям России запретили посещать сайт meteo.paraplan.net по решению Генеральной прокуратуры. Аудитория сайта уменьшилась в 10 раз. Владельцы сайта не видят смысла в поддержке погодного сервера в таких условиях. Сайт будет закрыт в октябре.
темп.,
°C
ветер,
м/с
пор.,
м/с
влажн.,
%
обл.,
%
осадки,
мм/ч
давл.,
гПа
погр.,
м
30 сентября, пт
пт3023:00+2зсз338299 0.8 99629
02:00+1зсз337796 0.0 99734
05:000зсз338074 0.0 99925
08:00−1зсз22795 0.0 99939
11:00+4ссз34625 0.0 999561
14:00+6ссз225370 0.0 999969
17:00+7ссз125165 0.0 9991210
20:00+3ссз126864 0.0 100013
1 октября, сб
сб123:000ссз33745 0.0 100214
02:00−1сз22725 0.0 100311
05:00−1сз22725 0.0 100412
08:00−1сз226786 0.0 100630
11:00+3ссз2252100 0.0 1006506
14:00+4сз1147100 0.0 1006907
17:00+5зюз1150100 0.0 1007440
20:00+1зсз1164100 0.0 100810
2 октября, вс
вс223:000ссв2265100 0.0 100911
02:000с2266100 0.0 100912
05:00−1ссз2264100 0.0 101015
08:00−1сз2263100 0.0 101121
11:00+2ссз22495 0.0 1012663
14:00+4сз22455 0.0 10121159
17:00+4з22476 0.0 1012830
20:00−1з11635 0.0 101310
3 октября, пн
пн323:00−2с226557 0.0 101411
02:00−3с226877 0.0 101510
05:00−2св1166100 0.0 101410
08:00−1всв1159100 0.0 101376
11:00+1в1252100 0.0 1013441
14:00+2всв3449100 0.0 1010745
17:00+3св2446100 0.0 1008518
20:00+1с3354100 0.0 100846
4 октября, вт
вт423:00−1ссз3459100 0.1 1008110
02:00−1сз2360100 0.0 100946
05:00−2ссз226295 0.0 101021
08:00−1ссз2357100 0.0 1011143
11:00+1с3356100 0.0 1011674
14:00+2св2363100 0.1 1010803
17:00+1всв3388100 0.3 1009346
20:000ссв1391100 0.9 1008166